Location: Lafig�re
(44.4503°N, 4.0357°E)
Time: 16:44:11
(UTC+00:00)

Okean 2 Rocket - Pass Details

Date: 24 September 2020
Orbit: 616 x 642 km, 82.5° (Epoch: 25 October)

Event Time Altitude Azimuth Distance (km) Brightness Sun altitude
Rises 18:26:34 0° 183° (S) 2,926 6.5 -9.7°
Reaches altitude 10° 18:28:48 10° 182° (S) 2,019 5.6 -10.1°
Maximum altitude 18:33:16 78° 97° (E) 654 3.0 -10.8°
Drops below altitude 10° 18:37:45 10° 11° (N) 2,020 5.7 -11.6°
Sets 18:39:59 0° 10° (N) 2,928 6.5 -12.0°
